User: anonymous   Login
Location: Langangen
(59.1000°N, 9.8000°E)
Time: 16:17:09
(UTC+01:00)
Language:

Iridium 60 - Orbit

View from above orbital plane
View from above orbital plane
View from above satellite
View from above satellite

Ground track
Ground track

The orbit data is extracted from the following two-line orbital elements,

1 25276U 98019E   17023.48253193  .00000108  00000-0  31374-4 0  9998
2 25276  86.3971 347.4881 0002181  87.8640 272.2805 14.34216100985323
Epoch (UTC): 23 January 2017 11:34:50
Eccentricity: 0.0002181
inclination: 86.3971°
perigee height: 776 km
apogee height: 779 km
right ascension of ascending node: 347.4881°
argument of perigee: 87.8640°
revolutions per day: 14.34216100
mean anomaly at epoch: 272.2805°
orbit number at epoch: 98532

The dashed part of the orbit path shows where the satellite is in the earth's shadow,  

DLR